OPTUS D3

Last updated on Wed Sep 17 2025 00:02:47 GMT+0000 (Coordinated Universal Time)

1 35756U 09044B 25259.48868601 -.00000166 00000+0 00000+0 0 9999 2 35756 0.1363 274.9105 0000122 205.3387 207.4988 1.00265907 58823
UTC large
Height (km)
Speed (km/s)
/
Latitude / Longitude
Inclination (degrees)
Orbital Period (minutes)
Azimuth
Elevation
Range (km)
Doppler Factor

Next 0 passes for location: London (51.5072 / 0.1276)

Sorry there are no passes over London.